Regional Weather Roundup
Issued by NWS

Home | Current Version | Previous Version | Text Only | Print | Product List | Glossary On
Versions: 1 2 3 4 5 6 7 8 9 10 11 12 13 14 15 16 17 18 19 20 21 22 23 24 25 26 27 28 29 30 31 32 33 34 35 36 37 38 39 40 41 42 43 44 45 46 47 48 49 50
000
ASUS43 KIND 221709
RWRIN

WEATHER ROUNDUP FOR INDIANA
NATIONAL WEATHER SERVICE INDIANAPOLIS IN
1200 PM EST MON DEC 22 2014

NOTE: "FAIR" INDICATES FEW OR NO CLOUDS BELOW 12,000 FEET WITH NO
SIGNIFICANT WEATHER AND/OR OBSTRUCTIONS TO VISIBILITY.

* - STATION DOES NOT REPORT WEATHER SUCH AS PRECIPITATION OR FOG.

+ - STATION NOT QUALITY CONTROLLED BY THE NATIONAL WEATHER SERVICE.
    USE DATA WITH CAUTION...ESPECIALLY DEWPOINT AND RELATIVE
    HUMIDITY OBSERVATIONS.

INZ001>003-010>013-019-020-221800-
NORTHWEST INDIANA

CITY           SKY/WX    TMP DP  RH WIND       PRES   REMARKS
KNOX *+        CLOUDY    34  26  74 SE10      29.90F WCI  26
LA PORTE +     CLOUDY    35  31  86 SE9       29.91F FOG     WCI  27
MICHIGAN CITY+ CLOUDY    34  27  75 SE8       29.90F WCI  27
MONTICELLO +   DRIZZLE   36  32  85 E8        29.88F
RENSSELAER +   CLOUDY    36  34  93 E13       29.87F
VALPARAISO     MIX PCPN  34  29  82 SE13      29.89F WCI  25

$$

LMZ046-743>745-221800-
SOUTHERN LAKE MICHIGAN

STATION/POSITION TIME  TEMP WIND        PRES
                       AIR  DIR/SP/G
                 (UTC) (F)  (DEG/KT/KT) (MB)

$$

INZ004-005-014>016-021>024-221800-
NORTH CENTRAL INDIANA

CITY           SKY/WX    TMP DP  RH WIND       PRES   REMARKS
ELKHART        CLOUDY    32  25  74 SE9       29.94F HAZE    WCI  24
GOSHEN         CLOUDY    33  27  78 SE10      29.94F HAZE    WCI  25
LOGANSPORT +   CLOUDY    34  32  93 E8        29.90F WCI  27
ROCHESTER +    DRIZZLE   36  32  87 SE8       29.92F
SOUTH BEND     NOT AVBL
WARSAW +       CLOUDY    32  28  86 SE8       29.93F FOG     WCI  25

$$

INZ006>009-017-018-025>027-221800-
NORTHEAST INDIANA

CITY           SKY/WX    TMP DP  RH WIND       PRES   REMARKS
ANGOLA *+      PTSUNNY   32  27  80 SE8       29.95F WCI  25
AUBURN +       CLOUDY    32  28  86 E5        29.97F HAZE    WCI  27
FORT WAYNE     CLOUDY    33  29  85 E8        29.96F FOG     WCI  26
HUNTINGTON +   CLOUDY    33  30  88 E6        29.93F WCI  28

$$

INZ028-029-035-036-043>045-051>053-221800-
WEST CENTRAL INDIANA

CITY           SKY/WX    TMP DP  RH WIND       PRES   REMARKS
GREENCASTLE +  CLOUDY    36  32  87 SE9       29.88F
LAFAYETTE      LGT RAIN  37  34  89 SE8       29.87F FOG
TERRE HAUTE    CLOUDY    41  36  82 SE10      29.85F

$$

INZ030>032-037>040-046>048-054>057-064-065-221800-
CENTRAL INDIANA

CITY           SKY/WX    TMP DP  RH WIND       PRES   REMARKS
ANDERSON       CLOUDY    37  30  75 SE12      29.93F
CP ATTERBURY + CLOUDY    37  32  81 MISG      29.92F
FRANKFORT +    CLOUDY    37  34  87 E9        29.89F
INDIANAPOLIS   CLOUDY    37  32  82 SE12      29.88F
-EAGLE CREEK   CLOUDY    38  33  82 SE7       29.89F
KOKOMO *+      CLOUDY    36  30  80 SE7       29.90F
MARION +       CLOUDY    36  31  83 SE7       29.92F
MT COMFORT *+  CLOUDY    37  30  75 SE6       29.92F
SHELBYVILLE    CLOUDY    40  33  76 SE5       29.91F
ZIONSVILLE +   CLOUDY    39  32  77 SE8       29.90F

$$

INZ033-034-041-042-049-050-058-059-221800-
EAST CENTRAL INDIANA

CITY           SKY/WX    TMP DP  RH WIND       PRES   REMARKS
MUNCIE         CLOUDY    38  32  79 SE7       29.93F

$$

INZ060-061-067>069-081>083-085>088-221800-
SOUTHWEST INDIANA

CITY           SKY/WX    TMP DP  RH WIND       PRES   REMARKS
EVANSVILLE     CLOUDY    50  43  77 SE9G18    29.85F
HUNTINGBURG *+ CLOUDY    48  41  76 SE9       29.88F
WASHINGTON +   CLOUDY    43  38  83 SE8       29.86F

$$

INZ062-063-066-070>080-084-089>092-221800-
SOUTH CENTRAL AND SOUTHEAST INDIANA

CITY           SKY/WX    TMP DP  RH WIND       PRES   REMARKS
BLOOMINGTON    CLOUDY    40  35  83 SE7       29.87F

$$



USA.gov is the U.S. government's official web portal to all federal, state and local government web resources and services.